Weather History for RPLB - November, 2012

Change the Weather History Date:

Tuesday, November 6, 2012

  Actual Average Record
Temperature  
Mean Temperature 84 °F -  
Max Temperature 93 °F 86 °F 93 °F (2012)
Min Temperature 76 °F 74 °F 73 °F (2004)
Cooling Degree Days 20    
Growing Degree Days 34 (Base 50)    
Moisture  
Dew Point 73 °F    
Average Humidity 70    
Maximum Humidity 89    
Minimum Humidity 46    
Precipitation  
Precipitation 0.00 in - - ()
Sea Level Pressure  
Sea Level Pressure 29.85 in    
Wind  
Wind Speed 6 mph ()    
Max Wind Speed 10 mph    
Max Gust Speed -    
Visibility 7.3 miles    
Events      
Averages and records for this station are not official NWS values.
T = Trace of Precipitation, MM = Missing Value Source: Averaged Metar Reports

Daily Weather History Graph

Daily Weather History Graph

Search for Another Location

Airport or City:

Trip Planner

Search our weather history database for the weather conditions in past years. The results will help you decide how hot, cold, wet, or windy it might be!

Date:

Astronomy

Nov. 06, 2012 Rise Set
Actual Time 5:56 AM PHT 5:28 PM PHT
Civil Twilight 5:34 AM PHT 5:50 PM PHT
Nautical Twilight 5:08 AM PHT 6:16 PM PHT
Astronomical Twilight 4:42 AM PHT 6:41 PM PHT
Moon 11:25 PM PHT (11/6) 11:31 AM PHT (11/6)
Length of Visible Light 12h 16m
Length of Day
11h 32m
Waning Gibbous, 58% of the Moon is Illuminated
Nov 6
Waning Gibbous
Nov 7
Last Quarter
Nov 14
New
Nov 20
First Quarter
Nov 28
Full

Hourly Weather History & Observations

Time (PHT) Temp. Heat Index Dew Point Humidity Pressure Visibility Wind Dir Wind Speed Gust Speed Precip Events Conditions
12:00 AM 78.8 °F - 73.4 °F 83% 29.86 in 6.2 mi ENE 4.6 mph - N/A   Scattered Clouds
1:00 AM 78.8 °F - 73.4 °F 83% 29.83 in 6.2 mi Variable 3.5 mph - N/A   Partly Cloudy
2:00 AM 77 °F - 73 °F 83% 29.85 in 7 mi East 6.7 mph - -   Haze
2:00 AM 77.0 °F - 73.4 °F 89% 29.83 in 6.2 mi East 5.8 mph - N/A   Partly Cloudy
5:00 AM 78 °F - 72 °F 78% 29.84 in 7 mi ENE 4.5 mph - -   Haze
5:00 AM 78.8 °F - 71.6 °F 78% 29.83 in 6.2 mi ENE 4.6 mph - N/A   Mostly Cloudy
6:00 AM 77.0 °F - 71.6 °F 83% 29.86 in 5.0 mi ENE 6.9 mph - N/A   Mostly Cloudy
7:00 AM 78.8 °F - 73.4 °F 83% 29.86 in 6.2 mi Variable 3.5 mph - N/A   Partly Cloudy
8:00 AM 82 °F - 74 °F 69% 29.89 in 12 mi ENE 6.7 mph - -   Haze
8:00 AM 84.2 °F 90.9 °F 73.4 °F 70% 29.89 in 6.2 mi ENE 5.8 mph - N/A   Partly Cloudy
9:00 AM 86.0 °F 91.8 °F 71.6 °F 62% 29.89 in 6.2 mi ENE 9.2 mph - N/A   Partly Cloudy
10:00 AM 87.8 °F 93.8 °F 71.6 °F 58% 29.89 in 6.2 mi East 10.4 mph - N/A   Partly Cloudy
11:00 AM 88 °F - 74 °F 55% 29.88 in 12 mi East 8.9 mph - -   Haze
11:00 AM 87.8 °F 93.8 °F 71.6 °F 58% 29.86 in 6.2 mi East 9.2 mph - N/A   Partly Cloudy
12:00 PM 89.6 °F 96.2 °F 71.6 °F 55% 29.86 in 6.2 mi East 9.2 mph - N/A   Partly Cloudy
1:00 PM 91.4 °F 96.8 °F 69.8 °F 49% 29.83 in 6.2 mi ENE 8.1 mph - N/A   Scattered Clouds
2:00 PM 91 °F - 72 °F 46% 29.81 in 12 mi East 8.9 mph - -   Haze
2:00 PM 91.4 °F 96.8 °F 69.8 °F 49% 29.80 in 6.2 mi East 8.1 mph - N/A   Partly Cloudy
3:00 PM 89.6 °F 98.2 °F 73.4 °F 59% 29.80 in 6.2 mi SE 6.9 mph - N/A   Partly Cloudy
4:00 PM 87.8 °F 97.6 °F 75.2 °F 66% 29.80 in 6.2 mi WSW 8.1 mph - N/A   Partly Cloudy
5:00 PM 85 °F - 75 °F 66% 29.82 in 12 mi NNW 8.9 mph - -   Haze
5:00 PM 86.0 °F 95.1 °F 75.2 °F 70% 29.80 in 6.2 mi NNW 8.1 mph - N/A   Scattered Clouds
6:00 PM 82.4 °F 87.2 °F 71.6 °F 70% 29.83 in 6.2 mi North 8.1 mph - N/A   Partly Cloudy
7:00 PM 82.4 °F 88.2 °F 73.4 °F 74% 29.83 in 6.2 mi North 4.6 mph - N/A   Partly Cloudy
8:00 PM 82 °F - 75 °F 73% 29.86 in 11 mi NNW 4.5 mph - -   Haze
8:00 PM 82.4 °F 89.5 °F 75.2 °F 79% 29.86 in 6.2 mi NNW 4.6 mph - N/A   Partly Cloudy
9:00 PM 82.4 °F 89.5 °F 75.2 °F 79% 29.86 in 6.2 mi North 4.6 mph - N/A   Partly Cloudy
10:00 PM 78.8 °F - 73.4 °F 83% 29.86 in 6.2 mi ENE 4.6 mph - N/A   Scattered Clouds
11:00 PM 79 °F - 72 °F 75% 29.88 in 11 mi East 6.7 mph - -   Haze
11:00 PM 78.8 °F - 71.6 °F 78% 29.89 in 6.2 mi East 6.9 mph - N/A   Partly Cloudy